Location: Paderno d�Adda
(45.6667°N, 9.4333°E)
Time: 01:27:49
(UTC+00:00)

Cosmos 1125 Rocket - Pass Details

Date: 19 September 2020
Orbit: 758 x 780 km, 74.0° (Epoch: 26 October)

Event Time Altitude Azimuth Distance (km) Brightness Sun altitude
Rises 20:01:16 0° 214° (SSW) 3,245 6.8 -26.7°
Reaches altitude 10° 20:03:41 10° 219° (SW) 2,324 6.0 -27.0°
Maximum altitude 20:08:51 53° 296° (WNW) 955 4.2 -27.8°
Drops below altitude 10° 20:14:04 10° 13° (NNE) 2,343 6.2 -28.5°
Sets 20:16:31 0° 18° (NNE) 3,274 7.0 -28.9°
